Location: ?????
(31.8092°N, 35.2590°E)
Time: 02:33:36
(UTC+00:00)

Yuri Rocket - Pass Details

Date: 20 June 2021
Orbit: 567 x 1914 km, 28.2° (Epoch: 25 July)

Event Time Altitude Azimuth Distance (km) Brightness Sun altitude
Rises 19:36:09 0° 264° (W) 3,492 7.2 -27.2°
Reaches altitude 10° 19:38:24 10° 262° (W) 2,709 6.6 -27.5°
Maximum altitude 19:45:04 69° 180° (S) 1,297 4.3 -28.2°
Enters shadow 19:46:21 60° 133° (SE) 1,429 4.5 -28.4°
